TimeMDT,TemperatureF,Dew PointF,Humidity,Sea Level PressureIn,VisibilityMPH,Wind Direction,Wind SpeedMPH,Gust SpeedMPH,PrecipitationIn,Events,Conditions,WindDirDegrees,DateUTC
12:15 AM,41.0,12.2,31,29.86,10.0,East,9.2,-,N/A,,Clear,80,2013-04-08 06:15:00
12:35 AM,39.2,14.0,36,29.86,10.0,ENE,5.8,-,N/A,,Clear,60,2013-04-08 06:35:00
12:55 AM,37.4,12.2,36,29.86,10.0,North,3.5,-,N/A,,Clear,10,2013-04-08 06:55:00
1:15 AM,37.4,14.0,38,29.85,10.0,ENE,3.5,-,N/A,,Clear,60,2013-04-08 07:15:00
1:35 AM,37.4,12.2,36,29.85,10.0,North,5.8,-,N/A,,Clear,360,2013-04-08 07:35:00
1:55 AM,35.6,14.0,41,29.84,10.0,North,5.8,-,N/A,,Clear,350,2013-04-08 07:55:00
2:15 AM,35.6,12.2,38,29.84,10.0,North,9.2,-,N/A,,Clear,10,2013-04-08 08:15:00
2:35 AM,37.4,14.0,38,29.84,10.0,Calm,Calm,-,N/A,,Mostly Cloudy,0,2013-04-08 08:35:00
2:55 AM,37.4,15.8,41,29.83,10.0,Calm,Calm,-,N/A,,Scattered Clouds,0,2013-04-08 08:55:00
3:15 AM,33.8,12.2,41,29.83,10.0,Calm,Calm,-,N/A,,Clear,0,2013-04-08 09:15:00
3:35 AM,35.6,12.2,38,29.83,10.0,NNW,3.5,-,N/A,,Partly Cloudy,340,2013-04-08 09:35:00
3:55 AM,32.0,10.4,41,29.82,10.0,NE,4.6,-,N/A,,Clear,40,2013-04-08 09:55:00
4:15 AM,33.8,12.2,41,29.82,10.0,SE,3.5,-,N/A,,Clear,140,2013-04-08 10:15:00
4:35 AM,32.0,12.2,44,29.81,10.0,ESE,4.6,-,N/A,,Clear,120,2013-04-08 10:35:00
4:55 AM,33.8,15.8,48,29.81,10.0,East,4.6,-,N/A,,Clear,100,2013-04-08 10:55:00
5:15 AM,32.0,12.2,44,29.81,10.0,Calm,Calm,-,N/A,,Clear,0,2013-04-08 11:15:00
5:35 AM,30.2,10.4,44,29.80,10.0,Calm,Calm,-,N/A,,Clear,0,2013-04-08 11:35:00
5:55 AM,30.2,12.2,47,29.79,10.0,ESE,6.9,-,N/A,,Clear,110,2013-04-08 11:55:00
6:15 AM,28.4,10.4,47,29.80,10.0,Calm,Calm,-,N/A,,Clear,0,2013-04-08 12:15:00
6:35 AM,30.2,12.2,47,29.80,10.0,Calm,Calm,-,N/A,,Clear,0,2013-04-08 12:35:00
6:55 AM,30.2,10.4,44,29.80,10.0,ESE,4.6,-,N/A,,Clear,110,2013-04-08 12:55:00
7:15 AM,33.8,15.8,48,29.80,10.0,ESE,6.9,-,N/A,,Clear,110,2013-04-08 13:15:00
7:35 AM,39.2,17.6,42,29.80,10.0,East,6.9,-,N/A,,Clear,90,2013-04-08 13:35:00
7:55 AM,44.6,19.4,37,29.80,10.0,ESE,4.6,-,N/A,,Clear,110,2013-04-08 13:55:00
8:15 AM,48.2,21.2,34,29.80,10.0,SE,5.8,-,N/A,,Clear,140,2013-04-08 14:15:00
8:35 AM,48.2,21.2,34,29.80,10.0,South,3.5,-,N/A,,Clear,190,2013-04-08 14:35:00
8:55 AM,50.0,21.2,32,29.79,10.0,West,4.6,-,N/A,,Clear,260,2013-04-08 14:55:00
9:15 AM,51.8,23.0,33,29.79,10.0,WSW,5.8,-,N/A,,Clear,240,2013-04-08 15:15:00
9:35 AM,53.6,24.8,33,29.78,10.0,WSW,9.2,-,N/A,,Clear,250,2013-04-08 15:35:00
9:55 AM,53.6,24.8,33,29.78,10.0,South,11.5,-,N/A,,Clear,190,2013-04-08 15:55:00
10:15 AM,55.4,24.8,31,29.77,10.0,SSW,8.1,-,N/A,,Clear,210,2013-04-08 16:15:00
10:35 AM,55.4,24.8,31,29.76,10.0,WSW,16.1,19.6,N/A,,Clear,250,2013-04-08 16:35:00
10:55 AM,55.4,24.8,31,29.75,10.0,SW,6.9,-,N/A,,Clear,230,2013-04-08 16:55:00
11:15 AM,57.2,23.0,27,29.74,10.0,WSW,4.6,18.4,N/A,,Clear,250,2013-04-08 17:15:00
11:35 AM,59.0,23.0,25,29.72,10.0,SW,15.0,21.9,N/A,,Partly Cloudy,220,2013-04-08 17:35:00
11:55 AM,59.0,24.8,27,29.71,10.0,SSW,11.5,23.0,N/A,,Clear,200,2013-04-08 17:55:00
12:15 PM,60.8,24.8,25,29.69,10.0,SW,17.3,23.0,N/A,,Partly Cloudy,220,2013-04-08 18:15:00
12:35 PM,60.8,24.8,25,29.68,10.0,SW,17.3,29.9,N/A,,Partly Cloudy,220,2013-04-08 18:35:00
12:55 PM,62.6,24.8,24,29.66,10.0,SW,24.2,29.9,N/A,,Partly Cloudy,230,2013-04-08 18:55:00
1:15 PM,62.6,23.0,22,29.65,10.0,SW,20.7,29.9,N/A,,Clear,220,2013-04-08 19:15:00
1:35 PM,64.4,21.2,19,29.64,10.0,SW,25.3,34.5,N/A,,Clear,220,2013-04-08 19:35:00
1:55 PM,64.4,21.2,19,29.62,10.0,SSW,25.3,35.7,N/A,,Clear,210,2013-04-08 19:55:00
2:15 PM,64.4,21.2,19,29.61,10.0,SW,21.9,33.4,N/A,,Clear,220,2013-04-08 20:15:00
2:35 PM,64.4,21.2,19,29.59,10.0,SSW,26.5,34.5,N/A,,Partly Cloudy,210,2013-04-08 20:35:00
2:55 PM,64.4,19.4,18,29.58,10.0,SSW,23.0,29.9,N/A,,Scattered Clouds,200,2013-04-08 20:55:00
3:15 PM,66.2,19.4,17,29.55,10.0,SW,24.2,36.8,N/A,,Partly Cloudy,220,2013-04-08 21:15:00
3:35 PM,66.2,19.4,17,29.53,10.0,SW,24.2,36.8,N/A,,Partly Cloudy,230,2013-04-08 21:35:00
3:55 PM,66.2,17.6,15,29.52,10.0,SW,28.8,39.1,N/A,,Clear,220,2013-04-08 21:55:00
4:15 PM,64.4,17.6,16,29.51,10.0,SW,31.1,36.8,N/A,,Clear,220,2013-04-08 22:15:00
4:35 PM,64.4,17.6,16,29.51,10.0,SSW,24.2,34.5,N/A,,Partly Cloudy,210,2013-04-08 22:35:00
4:55 PM,60.8,17.6,19,29.51,10.0,WSW,16.1,34.5,N/A,,Mostly Cloudy,250,2013-04-08 22:55:00
5:15 PM,60.8,19.4,20,29.51,8.0,SW,10.4,39.1,N/A,,Overcast,220,2013-04-08 23:15:00
5:35 PM,60.8,19.4,20,29.51,10.0,SW,24.2,36.8,N/A,,Mostly Cloudy,220,2013-04-08 23:35:00
5:55 PM,62.6,17.6,18,29.49,10.0,SSW,26.5,35.7,N/A,,Mostly Cloudy,210,2013-04-08 23:55:00
6:15 PM,62.6,15.8,16,29.48,10.0,SSW,26.5,33.4,N/A,,Mostly Cloudy,200,2013-04-09 00:15:00
6:35 PM,62.6,15.8,16,29.49,9.0,SW,25.3,43.7,N/A,,Scattered Clouds,220,2013-04-09 00:35:00
6:55 PM,60.8,14.0,16,29.49,10.0,SW,24.2,33.4,N/A,,Clear,230,2013-04-09 00:55:00
7:15 PM,60.8,12.2,15,29.49,10.0,SW,24.2,38.0,N/A,,Clear,220,2013-04-09 01:15:00
7:35 PM,60.8,14.0,16,29.51,10.0,SW,18.4,24.2,N/A,,Scattered Clouds,230,2013-04-09 01:35:00
7:55 PM,59.0,15.8,19,29.51,10.0,SW,17.3,28.8,N/A,,Overcast,220,2013-04-09 01:55:00
8:15 PM,55.4,21.2,26,29.50,10.0,South,9.2,24.2,N/A,,Mostly Cloudy,180,2013-04-09 02:15:00
8:35 PM,57.2,19.4,23,29.50,10.0,South,9.2,19.6,N/A,,Mostly Cloudy,190,2013-04-09 02:35:00
8:55 PM,55.4,17.6,23,29.50,10.0,South,9.2,-,N/A,,Partly Cloudy,180,2013-04-09 02:55:00
9:15 PM,57.2,17.6,21,29.50,10.0,SSW,21.9,33.4,N/A,,Partly Cloudy,200,2013-04-09 03:15:00
9:35 PM,57.2,17.6,21,29.53,3.0,SW,25.3,50.6,N/A,,Mostly Cloudy,230,2013-04-09 03:35:00
9:55 PM,55.4,19.4,25,29.53,10.0,West,24.2,-,N/A,,Overcast,280,2013-04-09 03:55:00
10:15 PM,53.6,24.8,33,29.54,10.0,WNW,15.0,-,N/A,,Overcast,290,2013-04-09 04:15:00
10:35 PM,51.8,24.8,35,29.55,10.0,NW,13.8,20.7,N/A,,Overcast,310,2013-04-09 04:35:00
10:55 PM,51.8,24.8,35,29.55,10.0,NNW,10.4,-,N/A,,Overcast,340,2013-04-09 04:55:00
11:15 PM,51.8,24.8,35,29.56,10.0,NE,8.1,-,N/A,,Overcast,40,2013-04-09 05:15:00
11:35 PM,51.8,24.8,35,29.58,10.0,NNE,5.8,-,N/A,,Overcast,20,2013-04-09 05:35:00
11:55 PM,50.0,24.8,37,29.62,9.0,West,11.5,16.1,N/A,,Overcast,260,2013-04-09 05:55:00